Location: Newark
(37.3333°N, 6.0167°W)
Time: 12:12:32
(UTC+00:00)

LightSail 2 - Pass Details

Date: 16 November 2019
Orbit: 696 x 729 km, 24.0° (Epoch: 10 December)

Event Time Altitude Azimuth Distance (km) Brightness Sun altitude
Exits shadow 05:37:39 10° 224° (SW) 2,193 7.4 -17.2°
Maximum altitude 05:40:26 15° 191° (S) 1,897 7.3 -16.7°
Drops below altitude 10° 05:43:18 10° 157° (SSE) 2,210 8.1 -16.1°
Sets 05:46:47 0° 134° (SE) 3,131 9.5 -15.4°
